Ellensburg, WA

1:45 PM PDT on May 25, 2017 (GMT -0700)
Bowers

Weather History for KELN - July, 2013

Change the Weather History Date:

Tuesday, July 30, 2013

  Actual Average (KYKM) Record (KYKM)
Temperature  
Mean Temperature 73 °F -  
Max Temperature 93 °F 90 °F 104 °F (1971)
Min Temperature 55 °F 55 °F 45 °F (2006)
Cooling Degree Days 8    
Growing Degree Days 23 (Base 50)    
Moisture  
Dew Point 47 °F    
Average Humidity 44    
Maximum Humidity 75    
Minimum Humidity 10    
Precipitation  
Precipitation 0.00 in - - ()
Sea Level Pressure  
Sea Level Pressure 30.00 in    
Wind  
Wind Speed 8 mph (North)    
Max Wind Speed 15 mph    
Max Gust Speed -    
Visibility 10 miles    
Events      
Averages and records for this station are not official NWS values.
T = Trace of Precipitation, MM = Missing Value Source: NWS Daily Summary

Daily Weather History Graph

Daily Weather History Graph

Search for Another Location

Airport or City:

Trip Planner

Search our weather history database for the weather conditions in past years. The results will help you decide how hot, cold, wet, or windy it might be!

Date:

Astronomy

Jul. 30, 2013 Rise Set
Actual Time 5:39 AM PDT 8:36 PM PDT
Civil Twilight 5:03 AM PDT 9:12 PM PDT
Nautical Twilight 4:17 AM PDT 9:58 PM PDT
Astronomical Twilight 3:22 AM PDT 10:53 PM PDT
Moon 12:03 AM PDT (7/30) 3:00 PM PDT (7/30)
Length of Visible Light 16h 08m
Length of Day
14h 57m
Last Quarter, 40% of the Moon is Illuminated
Jul 30
Last Quarter
Aug 6
New
Aug 14
First Quarter
Aug 20
Full
Aug 28
Last Quarter

Hourly Weather History & Observations

Time (PDT) Temp. Dew Point Humidity Pressure Visibility Wind Dir Wind Speed Gust Speed Precip Events Conditions
12:53 AM 66.9 °F 48.9 °F 52% 29.92 in 10.0 mi NW 15.0 mph - N/A   Overcast
1:53 AM 66.0 °F 50.0 °F 56% 29.93 in 10.0 mi NNW 15.0 mph - N/A   Clear
2:53 AM 63.0 °F 48.9 °F 60% 29.95 in 10.0 mi Variable 4.6 mph - N/A   Clear
3:53 AM 57.9 °F 48.0 °F 70% 29.96 in 10.0 mi NNE 4.6 mph - N/A   Clear
4:53 AM 55.9 °F 48.0 °F 75% 29.99 in 10.0 mi Variable 4.6 mph - N/A   Clear
5:53 AM 57.9 °F 48.0 °F 70% 29.99 in 10.0 mi North 3.5 mph - N/A   Clear
6:53 AM 57.9 °F 48.9 °F 72% 30.02 in 10.0 mi Calm Calm - N/A   Clear
7:53 AM 64.0 °F 51.1 °F 63% 30.03 in 10.0 mi Calm Calm - N/A   Clear
8:53 AM 68.0 °F 52.0 °F 56% 30.04 in 10.0 mi ENE 4.6 mph - N/A   Clear
9:53 AM 72.0 °F 52.0 °F 49% 30.04 in 10.0 mi Variable 3.5 mph - N/A   Overcast
10:53 AM 78.1 °F 53.1 °F 42% 30.03 in 10.0 mi Variable 4.6 mph - N/A   Overcast
11:53 AM 82.9 °F 45.0 °F 26% 30.03 in 10.0 mi West 5.8 mph - N/A   Overcast
12:53 PM 86.0 °F 45.0 °F 24% 30.01 in 7.0 mi Variable 3.5 mph - N/A   Overcast
1:53 PM 91.0 °F 39.0 °F 16% 30.01 in 9.0 mi South 8.1 mph - N/A   Overcast
2:53 PM 91.9 °F 35.1 °F 13% 30.00 in 10.0 mi SSE 6.9 mph - N/A   Clear
3:53 PM 91.9 °F 28.0 °F 10% 29.99 in 10.0 mi ESE 4.6 mph - N/A   Clear
4:53 PM 91.0 °F 33.1 °F 13% 29.98 in 10.0 mi ENE 4.6 mph - N/A   Clear
5:53 PM 91.0 °F 37.9 °F 15% 29.98 in 10.0 mi NW 3.5 mph - N/A   Clear
6:53 PM 86.0 °F 46.9 °F 26% 29.98 in 10.0 mi North 4.6 mph - N/A   Clear
7:53 PM 79.0 °F 53.1 °F 40% 29.99 in 10.0 mi NW 9.2 mph - N/A   Mostly Cloudy
8:53 PM 75.9 °F 55.0 °F 48% 30.01 in 10.0 mi NW 15.0 mph - N/A   Overcast
9:53 PM 73.9 °F 55.0 °F 52% 30.03 in 10.0 mi NW 13.8 mph - N/A   Clear
10:53 PM 72.0 °F 55.0 °F 55% 30.03 in 10.0 mi NW 13.8 mph - N/A   Clear